This is the latest recevied weather packets stored in our database for station/object SV1BYK-13. If no packets are shown the sender has not sent any weather packets the latest 10 day(s).
| Time | Temp. | Humidity | Pressure | Rain* | Wind** | Luminosity | Snow |
|---|---|---|---|---|---|---|---|
| 1787418007 | 30° C | 60% | 992.8 hPa | - | - | - | - |
| 1787417107 | 30° C | 60% | 992.9 hPa | - | - | - | - |
| 1787416207 | 30.56° C | 58% | 993 hPa | - | - | - | - |
| 1787415307 | 30° C | 54% | 992.9 hPa | - | - | - | - |
| 1787414406 | 30° C | 52% | 992.9 hPa | - | - | - | - |
| 1787413506 | 30° C | 50% | 992.8 hPa | - | - | - | - |
| 1787412606 | 30.56° C | 53% | 993 hPa | - | - | - | - |
| 1787411706 | 30.56° C | 54% | 992.9 hPa | - | - | - | - |
| 1787410806 | 30.56° C | 57% | 992.9 hPa | - | - | - | - |
| 1787409906 | 30.56° C | 58% | 993 hPa | - | - | - | - |
| 1787409005 | 30.56° C | 60% | 993.2 hPa | - | - | - | - |
| 1787408109 | 30.56° C | 59% | 993.1 hPa | - | - | - | - |
| 1787407209 | 30.56° C | 58% | 992.9 hPa | - | - | - | - |
| 1787406309 | 30.56° C | 57% | 993 hPa | - | - | - | - |
| 1787405409 | 30.56° C | 56% | 992.9 hPa | - | - | - | - |
| 1787404508 | 30.56° C | 56% | 992.9 hPa | - | - | - | - |
| 1787403608 | 30° C | 55% | 992.7 hPa | - | - | - | - |
| 1787402708 | 30° C | 53% | 992.9 hPa | - | - | - | - |
| 1787401808 | 30.56° C | 51% | 992.9 hPa | - | - | - | - |
| 1787400907 | 30° C | 51% | 993.1 hPa | - | - | - | - |
| 1787400007 | 30° C | 49% | 993.1 hPa | - | - | - | - |
| 1787399107 | 30° C | 51% | 993.1 hPa | - | - | - | - |
| 1787398207 | 30.56° C | 55% | 993.2 hPa | - | - | - | - |
| 1787397307 | 30.56° C | 57% | 993.3 hPa | - | - | - | - |
| 1787396406 | 30.56° C | 58% | 993.4 hPa | - | - | - | - |
* Rain since midnight (hover to see other rain measurements)
** Current wind speed in m/s (hover to see current wind gust speed)